This is the latest recevied weather packets stored in our database for station/object SV4JYD-14. If no packets are shown the sender has not sent any weather packets the latest 10 day(s).
| Time | Temp. | Humidity | Pressure | Rain* | Wind** | Luminosity | Snow |
|---|---|---|---|---|---|---|---|
| 1787660212 | 31.11° C | 50% | 1012 hPa | 0 mm | - | - | - |
| 1787659312 | 33.89° C | 42% | 1012 hPa | 0 mm | - | - | - |
| 1787658412 | 33.33° C | 43% | 1012 hPa | 0 mm | - | - | - |
| 1787657511 | 32.78° C | 44% | 1012 hPa | 0 mm | - | - | - |
| 1787656611 | 32.78° C | 43% | 1013 hPa | 0 mm | - | - | - |
| 1787655711 | 32.78° C | 42% | 1012 hPa | 0 mm | - | - | - |
| 1787654810 | 32.78° C | 42% | 1012 hPa | 0 mm | - | - | - |
| 1787653910 | 32.78° C | 41% | 1012 hPa | 0 mm | - | - | - |
| 1787653010 | 32.78° C | 41% | 1013 hPa | 0 mm | - | - | - |
| 1787652110 | 32.22° C | 40% | 1013 hPa | 0 mm | - | - | - |
| 1787651209 | 32.22° C | 40% | 1013 hPa | 0 mm | - | - | - |
| 1787650309 | 31.67° C | 43% | 1013 hPa | 0 mm | - | - | - |
| 1787649408 | 31.67° C | 45% | 1013 hPa | 0 mm | - | - | - |
| 1787648508 | 31.11° C | 46% | 1013 hPa | 0 mm | - | - | - |
| 1787647608 | 30° C | 50% | 1013 hPa | 0 mm | - | - | - |
| 1787646708 | 29.44° C | 53% | 1013 hPa | 0 mm | - | - | - |
| 1787645807 | 28.89° C | 55% | 1014 hPa | 0 mm | - | - | - |
| 1787644907 | 28.33° C | 57% | 1013 hPa | 0 mm | - | - | - |
| 1787644007 | 28.33° C | 57% | 1013 hPa | 0 mm | - | - | - |
| 1787643107 | 27.78° C | 59% | 1013 hPa | 0 mm | - | - | - |
| 1787642206 | 27.22° C | 60% | 1013 hPa | 0 mm | - | - | - |
| 1787641306 | 27.22° C | 60% | 1013 hPa | 0 mm | - | - | - |
| 1787640406 | 26.67° C | 61% | 1013 hPa | 0 mm | - | - | - |
| 1787639500 | 26.67° C | 60% | 1013 hPa | 0 mm | - | - | - |
| 1787638600 | 26.67° C | 60% | 1013 hPa | 0 mm | - | - | - |
* Rain latest hour (hover to see other rain measurements)
** Current wind speed in m/s (hover to see current wind gust speed)